When you browse on this site, cookies collect data to enhance your experience and personalize the content and advertising you see.
Visit our Privacy Policy to learn more. By continuing to use the site, you agree to this use of cookies and data.
  • En España
  • Lista de países
  • Para 7 días
  • Temperatura del agua
  • Mapa Satelital
  • El tiempo en el mapa
  • Informadores
  • user-avatar
    Iniciar sesión

    Tiempo cada hora Kotonu

    Hoy, 16 Diciembre, Domingo

    Tiempo Temperatura Precipitaciones Viento Presión Humedad
    00:00 +29°C° 0 mm 3 mps 759 mmHg 82%
    01:00 +28°C° 0 mm 3 mps 759 mmHg 83%
    02:00 +28°C° 0 mm 2 mps 759 mmHg 85%
    03:00 +28°C° 0 mm 2 mps 759 mmHg 86%
    04:00 +28°C° 0 mm 2 mps 759 mmHg 87%
    05:00 +28°C° 0 mm 2 mps 759 mmHg 87%
    06:00 +28°C° 0 mm 2 mps 759 mmHg 88%
    07:00 +29°C° 0 mm 2 mps 759 mmHg 78%
    08:00 +31°C° 0 mm 2 mps 760 mmHg 69%
    09:00 +34°C° 0 mm 2 mps 760 mmHg 59%
    10:00 +35°C° 0 mm 2 mps 760 mmHg 53%
    11:00 +37°C° 0 mm 2 mps 759 mmHg 47%
    12:00 +38°C° 0 mm 2 mps 759 mmHg 40%
    13:00 +38°C° 0 mm 3 mps 759 mmHg 43%
    14:00 +37°C° 0 mm 4 mps 758 mmHg 46%
    15:00 +37°C° 0 mm 4 mps 757 mmHg 48%
    16:00 +35°C° 0 mm 4 mps 758 mmHg 55%
    17:00 +33°C° 0 mm 4 mps 758 mmHg 61%
    18:00 +32°C° 0 mm 5 mps 758 mmHg 67%
    19:00 +32°C° 0 mm 4 mps 759 mmHg 69%
    20:00 +30°C° 0 mm 4 mps 759 mmHg 71%
    21:00 +30°C° 0 mm 4 mps 760 mmHg 73%
    22:00 +30°C° 0 mm 4 mps 760 mmHg 75%
    23:00 +29°C° 0 mm 4 mps 759 mmHg 76%

    Mañana, 17 Diciembre, Lunes

    Tiempo Temperatura Precipitaciones Viento Presión Humedad
    00:00 +29°C° 0 mm 4 mps 759 mmHg 77%
    01:00 +29°C° 0 mm 4 mps 759 mmHg 79%
    02:00 +29°C° 0 mm 4 mps 759 mmHg 80%
    03:00 +28°C° 0 mm 3 mps 758 mmHg 82%
    04:00 +28°C° 0 mm 3 mps 758 mmHg 83%
    05:00 +28°C° 0 mm 3 mps 758 mmHg 85%
    06:00 +28°C° 0 mm 3 mps 759 mmHg 86%
    07:00 +29°C° 0 mm 3 mps 759 mmHg 80%
    08:00 +30°C° 0 mm 2 mps 759 mmHg 73%
    09:00 +32°C° 0 mm 2 mps 760 mmHg 67%
    10:00 +34°C° 0 mm 2 mps 760 mmHg 61%
    11:00 +35°C° 0 mm 2 mps 759 mmHg 55%
    12:00 +37°C° 0 mm 3 mps 759 mmHg 49%
    13:00 +37°C° 0.1 mm 3 mps 758 mmHg 49%
    14:00 +37°C° 0.1 mm 3 mps 757 mmHg 48%
    15:00 +37°C° 0.1 mm 4 mps 757 mmHg 48%
    16:00 +35°C° 0.1 mm 4 mps 757 mmHg 56%
    17:00 +34°C° 0.1 mm 4 mps 757 mmHg 64%
    18:00 +32°C° 0.1 mm 5 mps 757 mmHg 72%
    19:00 +32°C° 0 mm 4 mps 758 mmHg 74%
    20:00 +30°C° 0 mm 4 mps 759 mmHg 75%
    21:00 +30°C° 0 mm 4 mps 759 mmHg 77%
    22:00 +30°C° 0 mm 4 mps 759 mmHg 78%
    23:00 +30°C° 0 mm 4 mps 759 mmHg 80%

    Pasado mañana, 18 Diciembre, Martes

    Tiempo Temperatura Precipitaciones Viento Presión Humedad
    00:00 +29°C° 0 mm 4 mps 759 mmHg 81%
    01:00 +29°C° 0 mm 4 mps 758 mmHg 82%
    02:00 +29°C° 0 mm 4 mps 758 mmHg 83%
    03:00 +29°C° 0 mm 4 mps 757 mmHg 84%
    04:00 +28°C° 0.2 mm 3 mps 758 mmHg 85%
    05:00 +28°C° 0.2 mm 3 mps 758 mmHg 86%
    06:00 +28°C° 0.2 mm 3 mps 758 mmHg 87%
    07:00 +30°C° 0.1 mm 3 mps 759 mmHg 79%
    08:00 +31°C° 0.1 mm 3 mps 759 mmHg 70%
    09:00 +34°C° 0.1 mm 3 mps 760 mmHg 61%
    10:00 +36°C° 0.1 mm 3 mps 759 mmHg 55%
    11:00 +37°C° 0.1 mm 3 mps 759 mmHg 49%
    12:00 +38°C° 0.1 mm 3 mps 758 mmHg 43%
    13:00 +38°C° 0.2 mm 4 mps 758 mmHg 47%
    14:00 +37°C° 0.2 mm 4 mps 757 mmHg 51%
    15:00 +36°C° 0.2 mm 5 mps 756 mmHg 56%
    16:00 +34°C° 0 mm 5 mps 757 mmHg 60%
    17:00 +33°C° 0 mm 5 mps 757 mmHg 65%
    18:00 +32°C° 0 mm 5 mps 757 mmHg 70%
    19:00 +32°C° 0 mm 5 mps 758 mmHg 73%
    20:00 +30°C° 0 mm 5 mps 759 mmHg 76%
    21:00 +30°C° 0 mm 5 mps 759 mmHg 78%
    22:00 +30°C° 0 mm 5 mps 759 mmHg 79%
    23:00 +30°C° 0 mm 5 mps 759 mmHg 80%

    19 Diciembre, Miércoles

    Tiempo Temperatura Precipitaciones Viento Presión Humedad
    00:00 +30°C° 0 mm 5 mps 759 mmHg 81%
    01:00 +29°C° 0.2 mm 4 mps 758 mmHg 82%
    02:00 +29°C° 0.2 mm 4 mps 758 mmHg 83%
    03:00 +29°C° 0.2 mm 4 mps 758 mmHg 84%
    04:00 +29°C° 0.1 mm 4 mps 758 mmHg 84%
    05:00 +28°C° 0.1 mm 4 mps 758 mmHg 85%
    06:00 +28°C° 0.1 mm 4 mps 759 mmHg 85%
    07:00 +30°C° 0 mm 4 mps 759 mmHg 77%
    08:00 +32°C° 0 mm 4 mps 760 mmHg 70%
    09:00 +34°C° 0 mm 4 mps 760 mmHg 63%
    10:00 +35°C° 0 mm 4 mps 760 mmHg 57%
    11:00 +37°C° 0 mm 4 mps 759 mmHg 50%
    12:00 +38°C° 0 mm 4 mps 759 mmHg 44%
    13:00 +37°C° 0.2 mm 4 mps 758 mmHg 47%
    14:00 +37°C° 0.2 mm 4 mps 757 mmHg 50%
    15:00 +36°C° 0.2 mm 5 mps 756 mmHg 52%
    16:00 +35°C° 0.1 mm 5 mps 757 mmHg 58%
    17:00 +33°C° 0.1 mm 5 mps 757 mmHg 63%
    18:00 +32°C° 0.1 mm 5 mps 757 mmHg 69%
    19:00 +32°C° 0 mm 5 mps 758 mmHg 71%
    20:00 +30°C° 0 mm 5 mps 758 mmHg 74%
    21:00 +30°C° 0 mm 4 mps 759 mmHg 77%
    22:00 +30°C° 0.1 mm 4 mps 759 mmHg 79%
    23:00 +30°C° 0.1 mm 4 mps 759 mmHg 81%

    20 Diciembre, Jueves

    Tiempo Temperatura Precipitaciones Viento Presión Humedad
    00:00 +29°C° 0.1 mm 4 mps 758 mmHg 82%
    01:00 +29°C° 0.4 mm 4 mps 758 mmHg 83%
    02:00 +29°C° 0.4 mm 4 mps 758 mmHg 84%
    03:00 +29°C° 0.4 mm 4 mps 757 mmHg 84%
    04:00 +28°C° 0.2 mm 3 mps 758 mmHg 85%
    05:00 +28°C° 0.2 mm 3 mps 758 mmHg 85%
    06:00 +28°C° 0.2 mm 3 mps 758 mmHg 85%
    07:00 +30°C° 0.3 mm 3 mps 759 mmHg 79%
    08:00 +32°C° 0.3 mm 4 mps 759 mmHg 72%
    09:00 +33°C° 0.3 mm 4 mps 760 mmHg 65%
    10:00 +35°C° 0.1 mm 3 mps 759 mmHg 59%
    11:00 +36°C° 0.1 mm 3 mps 759 mmHg 53%
    12:00 +37°C° 0.1 mm 3 mps 758 mmHg 46%
    13:00 +36°C° 0.5 mm 3 mps 758 mmHg 50%
    14:00 +36°C° 0.5 mm 4 mps 757 mmHg 53%
    15:00 +35°C° 0.5 mm 4 mps 757 mmHg 57%
    16:00 +34°C° 0.2 mm 4 mps 757 mmHg 61%
    17:00 +33°C° 0.2 mm 4 mps 757 mmHg 65%
    18:00 +30°C° 0.2 mm 4 mps 757 mmHg 69%
    19:00 +30°C° 0.1 mm 4 mps 758 mmHg 72%
    20:00 +30°C° 0.1 mm 4 mps 758 mmHg 74%
    21:00 +30°C° 0.1 mm 4 mps 759 mmHg 77%
    22:00 +30°C° 0 mm 4 mps 759 mmHg 78%
    23:00 +29°C° 0 mm 4 mps 759 mmHg 79%

    21 Diciembre, Viernes

    Tiempo Temperatura Precipitaciones Viento Presión Humedad
    00:00 +29°C° 0 mm 4 mps 758 mmHg 81%
    01:00 +29°C° 0.2 mm 4 mps 758 mmHg 82%
    02:00 +29°C° 0.2 mm 3 mps 758 mmHg 84%
    03:00 +28°C° 0.2 mm 3 mps 757 mmHg 85%
    04:00 +28°C° 0.2 mm 3 mps 758 mmHg 86%
    05:00 +28°C° 0.2 mm 3 mps 758 mmHg 86%
    06:00 +28°C° 0.2 mm 3 mps 758 mmHg 86%
    07:00 +29°C° 0.2 mm 3 mps 759 mmHg 80%
    08:00 +31°C° 0.2 mm 3 mps 759 mmHg 73%
    09:00 +33°C° 0.2 mm 3 mps 759 mmHg 66%
    10:00 +34°C° 0.1 mm 3 mps 759 mmHg 61%
    11:00 +35°C° 0.1 mm 3 mps 758 mmHg 56%
    12:00 +36°C° 0.1 mm 3 mps 758 mmHg 51%
    13:00 +36°C° 0.7 mm 3 mps 757 mmHg 53%
    14:00 +35°C° 0.7 mm 4 mps 757 mmHg 56%
    15:00 +34°C° 0.7 mm 4 mps 756 mmHg 58%
    16:00 +33°C° 0.1 mm 4 mps 756 mmHg 63%
    17:00 +32°C° 0.1 mm 4 mps 757 mmHg 68%
    18:00 +30°C° 0.1 mm 4 mps 757 mmHg 72%
    19:00 +30°C° 0 mm 4 mps 757 mmHg 74%
    20:00 +30°C° 0 mm 4 mps 758 mmHg 75%
    21:00 +30°C° 0 mm 4 mps 758 mmHg 76%
    22:00 +29°C° 0 mm 4 mps 758 mmHg 78%
    23:00 +29°C° 0 mm 4 mps 758 mmHg 80%
    Mostrar más